Moses Lake, WA

11:56 AM PST on December 07, 2016 (GMT -0800)
Grant County International

Weather History for KMWH - May, 2013

Change the Weather History Date:

Thursday, May 16, 2013

  Actual Average Record
Temperature  
Mean Temperature 63 °F 59 °F  
Max Temperature 73 °F 74 °F 96 °F (2006)
Min Temperature 52 °F 45 °F 34 °F (2002)
Degree Days  
Heating Degree Days 2 6  
Month to date heating degree days 53 138  
Since 1 July heating degree days 5161 5755  
Cooling Degree Days 0 1  
Month to date cooling degree days 50 6  
Year to date cooling degree days 50 7  
Growing Degree Days 12 (Base 50)    
Moisture  
Dew Point 43 °F    
Average Humidity 56    
Maximum Humidity 83    
Minimum Humidity 29    
Precipitation  
Precipitation T in 0.02 in 0.20 in (2011)
Month to date precipitation 0.01 0.31  
Year to date precipitation 1.39 3.73  
Sea Level Pressure  
Sea Level Pressure 29.89 in    
Wind  
Wind Speed 5 mph (ESE)    
Max Wind Speed 10 mph    
Max Gust Speed 16 mph    
Visibility 10 miles    
Events      
T = Trace of Precipitation, MM = Missing Value Source: NWS Daily Summary

Daily Weather History Graph

Daily Weather History Graph

Search for Another Location

Airport or City:

Trip Planner

Search our weather history database for the weather conditions in past years. The results will help you decide how hot, cold, wet, or windy it might be!

Date:

Astronomy

May. 16, 2013 Rise Set
Actual Time 5:19 AM PDT 8:28 PM PDT
Civil Twilight 4:43 AM PDT 9:05 PM PDT
Nautical Twilight 3:55 AM PDT 9:52 PM PDT
Astronomical Twilight 2:57 AM PDT 10:51 PM PDT
Moon 11:05 AM PDT (5/16) 12:45 AM PDT (5/16)
Length of Visible Light 16h 21m
Length of Day
15h 08m
Waxing Crescent, 36% of the Moon is Illuminated
May 16
Waxing Crescent
May 17
First Quarter
May 24
Full
May 31
Last Quarter
Jun 8
New

Hourly Weather History & Observations

Time (PDT) Temp. Dew Point Humidity Pressure Visibility Wind Dir Wind Speed Gust Speed Precip Events Conditions
12:52 AM 59.0 °F 42.1 °F 53% 29.92 in 10.0 mi SSE 3.5 mph - N/A   Overcast
1:52 AM 57.0 °F 44.1 °F 62% 29.92 in 10.0 mi SE 3.5 mph - N/A   Overcast
2:52 AM 55.9 °F 46.9 °F 72% 29.91 in 10.0 mi ESE 6.9 mph - N/A   Overcast
3:52 AM 54.0 °F 46.9 °F 77% 29.91 in 10.0 mi SE 4.6 mph - N/A   Overcast
4:52 AM 53.1 °F 46.0 °F 77% 29.92 in 10.0 mi ESE 4.6 mph - N/A   Overcast
5:52 AM 52.0 °F 46.9 °F 83% 29.93 in 10.0 mi East 4.6 mph - 0.00 in   Overcast
6:52 AM 52.0 °F 46.9 °F 83% 29.94 in 10.0 mi ESE 6.9 mph - 0.00 in   Overcast
7:52 AM 53.1 °F 46.9 °F 80% 29.95 in 10.0 mi SE 5.8 mph - N/A   Overcast
8:52 AM 57.0 °F 46.9 °F 69% 29.95 in 10.0 mi NE 3.5 mph - N/A   Overcast
9:52 AM 59.0 °F 46.0 °F 62% 29.95 in 10.0 mi Calm Calm - N/A   Overcast
10:52 AM 61.0 °F 46.0 °F 58% 29.94 in 10.0 mi ESE 4.6 mph - N/A   Overcast
11:52 AM 66.0 °F 43.0 °F 43% 29.92 in 10.0 mi South 4.6 mph - N/A   Scattered Clouds
12:52 PM 69.1 °F 42.1 °F 38% 29.90 in 10.0 mi WSW 6.9 mph - N/A   Partly Cloudy
1:52 PM 69.1 °F 39.9 °F 35% 29.88 in 10.0 mi Variable 3.5 mph - N/A   Mostly Cloudy
2:52 PM 70.0 °F 39.0 °F 32% 29.87 in 10.0 mi SSE 6.9 mph - N/A   Scattered Clouds
3:52 PM 72.0 °F 39.9 °F 31% 29.85 in 10.0 mi Variable 4.6 mph - N/A   Scattered Clouds
4:52 PM 72.0 °F 39.9 °F 31% 29.83 in 10.0 mi Variable 4.6 mph - N/A   Partly Cloudy
5:52 PM 72.0 °F 39.0 °F 30% 29.83 in 10.0 mi NE 5.8 mph - N/A   Clear
6:52 PM 71.1 °F 37.0 °F 29% 29.82 in 10.0 mi Calm Calm - N/A   Clear
7:52 PM 68.0 °F 37.9 °F 33% 29.83 in 10.0 mi SE 3.5 mph - N/A   Clear
8:52 PM 64.9 °F 39.0 °F 39% 29.84 in 10.0 mi NE 5.8 mph - N/A   Partly Cloudy
9:52 PM 62.1 °F 39.9 °F 44% 29.85 in 10.0 mi NNE 4.6 mph - N/A   Mostly Cloudy
10:52 PM 57.0 °F 41.0 °F 55% 29.86 in 10.0 mi NNE 3.5 mph - N/A   Scattered Clouds
11:52 PM 57.0 °F 42.1 °F 57% 29.87 in 10.0 mi NNE 6.9 mph - N/A   Scattered Clouds